Regional Weather Roundup
Issued by NWS Charleston, WV

Home | Current Version | Previous Version | Graphics & Text | Print | Product List | Glossary On
Versions: 1 2 3 4 5 6 7 8 9 10 11 12 13 14 15 16 17 18 19 20 21 22 23 24 25 26 27 28 29 30 31 32 33 34 35 36 37 38 39 40 41 42 43 44 45 46 47 48 49 50
000
ASUS41 KRLX 301010
RWRRLX
West Virginia Regional Weather Roundup
National Weather Service Charleston WV
600 AM EDT MON MAR 30 2015

Note: "fair" indicates few or no clouds below 12,000 feet with no
significant weather and/or obstructions to visibility.

WVZ003-301100-
Northern Panhandle of West Virginia

CITY           SKY/WX    TMP DP  RH WIND       PRES   REMARKS
WHEELING       CLOUDY    41  37  86 W8G18     29.86R
$$

WVZ009-301100-
Northwest West Virginia

CITY           SKY/WX    TMP DP  RH WIND       PRES   REMARKS
PARKERSBURG    CLOUDY    46  38  73 W6        29.94R
$$

WVZ006-301100-
Western West Virginia

CITY           SKY/WX    TMP DP  RH WIND       PRES   REMARKS
HUNTINGTON     LGT RAIN  47  43  86 W9        29.96R
$$

WVZ015-301100-
West Central West Virginia

CITY           SKY/WX    TMP DP  RH WIND       PRES   REMARKS
CHARLESTON     CLOUDY    48  38  68 SW9       29.94F
$$

WVZ022-031-301100-
North Central West Virginia

CITY           SKY/WX    TMP DP  RH WIND       PRES   REMARKS
CLARKSBURG     CLOUDY    40  37  89 SW9G18    29.90S
MORGANTOWN     CLOUDY    40  34  79 SW7       29.89R
$$

WVZ025-035-042-045-301100-
Southern West Virginia

CITY           SKY/WX    TMP DP  RH WIND       PRES   REMARKS
BECKLEY        LGT RAIN  40  37  89 W7        29.95F FOG
LOGAN          CLOUDY    45  43  93 SW8G16    29.94S
BLUEFIELD      CLOUDY    41  35  79 W10       29.96F
LEWISBURG      DRIZZLE   38  36  90 CALM      29.94F
$$

WVZ047-301100-
Northern Mountains of West Virginia

CITY           SKY/WX    TMP DP  RH WIND       PRES   REMARKS
ELKINS         CLOUDY    37  34  89 S9        29.90F
$$

WVZ052-301100-
Eastern Panhandle of West Virginia

CITY           SKY/WX    TMP DP  RH WIND       PRES   REMARKS
MARTINSBURG    CLOUDY    42  16  34 S3        29.90F
PETERSBURG     CLOUDY    46  31  55 S10G16    29.87F
$$


USA.gov is the U.S. government's official web portal to all federal, state and local government web resources and services.